EWG590 EDDK-LEPA

Flight info

Callsign EWG590
Flight time 1h 55m
Altitude 35000
Route NVO3F/13L NVO Y868 NAVAK Z283 SOPOK DCT ROUSY DCT GTQ DCT POGOL DCT LASAT DCT MOROK DCT GILIR DCT GEVEA DCT INCUS DCT BALSI DCT RETNO DCT TUPOX DCT MTG DCT DIVKO DCT VATIR DCT PIVUS DCT BODEQ DCT VERSO L129 LUNIK
Aircraft A320/M-SDE3FGHIRWY/LB1

Departure

Time 2026-04-30 18:06
Airport Cologne Bonn Airport (EDDK)

Arrival

Time 2026-04-30 20:01
Airport Palma de Mallorca Airport (LEPA)
Time Latitude Longitude Altitude Speed Heading
2026-04-30 17:39 50.88243 7.11814 230 ft 0 kts 186°
2026-04-30 17:56 50.88253 7.11816 226 ft 4 kts 183°
2026-04-30 17:57 50.88298 7.11785 233 ft 0 kts 74°
2026-04-30 18:01 50.88302 7.11810 232 ft 4 kts 74°
2026-04-30 18:02 50.88236 7.11923 230 ft 9 kts 134°
2026-04-30 18:02 50.88120 7.12219 231 ft 10 kts 123°
2026-04-30 18:03 50.88002 7.12559 230 ft 13 kts 123°
2026-04-30 18:04 50.88009 7.12858 237 ft 7 kts 84°
2026-04-30 18:05 50.87372 7.13884 248 ft 118 kts 137°
2026-04-30 18:06 50.84102 7.18512 2212 ft 168 kts 136°
2026-04-30 18:07 50.79808 7.24177 4511 ft 219 kts 158°
2026-04-30 18:08 50.75627 7.21225 6820 ft 259 kts 241°
2026-04-30 18:09 50.76177 7.09025 9059 ft 309 kts 283°
2026-04-30 18:10 50.77550 6.94910 10923 ft 363 kts 257°
2026-04-30 18:11 50.69661 6.86487 12806 ft 374 kts 180°
2026-04-30 18:11 50.61742 6.85811 14619 ft 386 kts 180°
2026-04-30 18:12 50.53605 6.85128 16288 ft 395 kts 180°
2026-04-30 18:13 50.48063 6.84617 17402 ft 402 kts 180°
2026-04-30 18:13 50.40549 6.83930 18839 ft 410 kts 180°
2026-04-30 18:14 50.33833 6.83338 19889 ft 417 kts 180°
2026-04-30 18:15 50.25046 6.82554 21196 ft 426 kts 180°
2026-04-30 18:15 50.16110 6.81757 22420 ft 434 kts 180°
2026-04-30 18:16 50.10041 6.81228 23164 ft 440 kts 180°
2026-04-30 18:16 50.03880 6.80693 23886 ft 445 kts 180°
2026-04-30 18:17 50.00779 6.80418 24199 ft 448 kts 180°
2026-04-30 18:17 49.97657 6.80141 24510 ft 449 kts 180°
2026-04-30 18:17 49.91391 6.79586 25115 ft 452 kts 180°
2026-04-30 18:18 49.88245 6.79312 25408 ft 454 kts 180°
2026-04-30 18:18 49.85083 6.79037 25697 ft 456 kts 180°
2026-04-30 18:18 49.81914 6.78761 25979 ft 457 kts 180°
2026-04-30 18:18 49.78732 6.78489 26256 ft 459 kts 180°
2026-04-30 18:19 49.75536 6.78217 26532 ft 460 kts 180°
2026-04-30 18:19 49.72330 6.77939 26798 ft 462 kts 180°
2026-04-30 18:19 49.69103 6.77659 26994 ft 465 kts 180°
2026-04-30 18:19 49.65862 6.77376 27216 ft 467 kts 180°
2026-04-30 18:20 49.62611 6.77091 27444 ft 469 kts 180°
2026-04-30 18:20 49.59353 6.76806 27673 ft 470 kts 180°
2026-04-30 18:20 49.56077 6.76521 27893 ft 472 kts 180°
2026-04-30 18:20 49.52797 6.76238 28143 ft 472 kts 180°
2026-04-30 18:21 49.49523 6.75955 28479 ft 470 kts 180°
2026-04-30 18:21 49.46254 6.75674 28801 ft 469 kts 180°
2026-04-30 18:21 49.42989 6.75391 29118 ft 468 kts 180°
2026-04-30 18:21 49.39737 6.75113 29411 ft 468 kts 180°
2026-04-30 18:22 49.36488 6.74836 29710 ft 467 kts 180°
2026-04-30 18:22 49.30003 6.74280 30323 ft 465 kts 180°
2026-04-30 18:22 49.26780 6.74000 30601 ft 464 kts 180°
2026-04-30 18:23 49.23551 6.73721 30853 ft 464 kts 180°
2026-04-30 18:23 49.20333 6.73443 31120 ft 463 kts 180°
2026-04-30 18:23 49.17112 6.73168 31369 ft 463 kts 180°
2026-04-30 18:23 49.13899 6.72899 31621 ft 462 kts 180°
2026-04-30 18:24 49.07491 6.72369 32150 ft 461 kts 180°
2026-04-30 18:24 49.04289 6.72102 32416 ft 460 kts 180°
2026-04-30 18:24 49.01098 6.71834 32652 ft 460 kts 180°
2026-04-30 18:25 48.97905 6.71566 32896 ft 459 kts 180°
2026-04-30 18:25 48.91489 6.71218 33405 ft 457 kts 178°
2026-04-30 18:25 48.88312 6.71125 33681 ft 457 kts 178°
2026-04-30 18:26 48.81965 6.70967 34180 ft 456 kts 178°
2026-04-30 18:26 48.78794 6.70867 34408 ft 455 kts 178°
2026-04-30 18:26 48.75627 6.70751 34621 ft 455 kts 178°
2026-04-30 18:27 48.69302 6.70492 35020 ft 455 kts 178°
2026-04-30 18:27 48.66139 6.70355 35196 ft 455 kts 178°
2026-04-30 18:28 48.59829 6.70098 35239 ft 457 kts 178°
2026-04-30 18:28 48.51310 6.69778 35228 ft 458 kts 178°
2026-04-30 18:29 48.38396 6.69275 35220 ft 458 kts 179°
2026-04-30 18:30 48.25632 6.68782 35207 ft 459 kts 178°
2026-04-30 18:31 48.16068 6.68420 35212 ft 458 kts 179°
2026-04-30 18:32 48.06511 6.68055 35205 ft 458 kts 179°
2026-04-30 18:33 47.96945 6.67694 35201 ft 458 kts 179°
2026-04-30 18:33 47.87399 6.67336 35200 ft 457 kts 179°
2026-04-30 18:34 47.77849 6.66975 35200 ft 458 kts 179°
2026-04-30 18:35 47.71472 6.66738 35196 ft 458 kts 179°
2026-04-30 18:35 47.66897 6.66566 35195 ft 458 kts 179°
2026-04-30 18:36 47.61393 6.66357 35196 ft 458 kts 179°
2026-04-30 18:37 47.51791 6.66004 35189 ft 458 kts 179°
2026-04-30 18:37 47.45412 6.65709 35187 ft 460 kts 183°
2026-04-30 18:38 47.39198 6.63348 35184 ft 466 kts 203°
2026-04-30 18:38 47.33769 6.58137 35174 ft 469 kts 219°
2026-04-30 18:39 47.29868 6.53224 35160 ft 469 kts 219°
2026-04-30 18:39 47.25688 6.48005 35160 ft 470 kts 219°
2026-04-30 18:40 47.21340 6.42584 35153 ft 470 kts 219°
2026-04-30 18:40 47.17605 6.37923 35164 ft 470 kts 219°
2026-04-30 18:41 47.12626 6.31721 35174 ft 469 kts 219°
2026-04-30 18:41 47.07333 6.26218 35175 ft 465 kts 205°
2026-04-30 18:42 47.01228 6.23300 35165 ft 461 kts 187°
2026-04-30 18:42 46.91669 6.21964 35161 ft 460 kts 184°
2026-04-30 18:45 46.56576 6.17304 35163 ft 459 kts 184°
2026-04-30 18:46 46.50245 6.16472 35166 ft 459 kts 184°
2026-04-30 18:46 46.43878 6.15637 35168 ft 459 kts 184°
2026-04-30 18:47 46.37513 6.14804 35165 ft 459 kts 185°
2026-04-30 18:47 46.31147 6.13979 35160 ft 459 kts 185°
2026-04-30 18:48 46.24791 6.13142 35157 ft 459 kts 186°
2026-04-30 18:48 46.18458 6.11901 35155 ft 459 kts 189°
2026-04-30 18:49 46.12164 6.10355 35149 ft 459 kts 190°
2026-04-30 18:49 46.05860 6.08843 35143 ft 459 kts 189°
2026-04-30 18:50 45.99544 6.07441 35145 ft 459 kts 189°
2026-04-30 18:50 45.93230 6.06079 35151 ft 458 kts 189°
2026-04-30 18:51 45.86924 6.04709 35155 ft 458 kts 189°
2026-04-30 18:51 45.80621 6.03313 35147 ft 458 kts 190°
2026-04-30 18:52 45.74333 6.01916 35143 ft 457 kts 190°
2026-04-30 18:52 45.69108 6.00764 35124 ft 457 kts 190°
2026-04-30 18:53 45.62828 5.99381 35122 ft 456 kts 190°
2026-04-30 18:53 45.56558 5.98010 35126 ft 456 kts 190°
2026-04-30 18:54 45.50289 5.96639 35132 ft 455 kts 190°
2026-04-30 18:54 45.44064 5.95120 35134 ft 453 kts 193°
2026-04-30 18:55 45.37919 5.93164 35140 ft 452 kts 195°
2026-04-30 18:55 45.28720 5.90114 35159 ft 452 kts 194°
2026-04-30 18:56 45.19507 5.87248 35164 ft 452 kts 194°
2026-04-30 18:57 45.10256 5.84417 35168 ft 452 kts 194°
2026-04-30 18:57 45.04113 5.82531 35166 ft 451 kts 194°
2026-04-30 18:58 44.94904 5.79676 35166 ft 452 kts 194°
2026-04-30 18:59 44.85688 5.76841 35167 ft 452 kts 194°
2026-04-30 19:00 44.73403 5.73093 35173 ft 451 kts 193°
2026-04-30 19:01 44.61129 5.69354 35179 ft 451 kts 193°
2026-04-30 19:02 44.51919 5.66558 35183 ft 451 kts 193°
2026-04-30 19:03 44.39690 5.62848 35193 ft 450 kts 194°
2026-04-30 19:04 44.27975 5.56855 35192 ft 448 kts 202°
2026-04-30 19:05 44.16357 5.50509 35186 ft 448 kts 203°
2026-04-30 19:06 44.04722 5.44174 35194 ft 449 kts 203°
2026-04-30 19:06 43.95996 5.39450 35193 ft 449 kts 203°
2026-04-30 19:07 43.87277 5.34741 35187 ft 448 kts 204°
2026-04-30 19:08 43.75682 5.28482 35199 ft 447 kts 205°
2026-04-30 19:09 43.66994 5.23812 35203 ft 446 kts 206°
2026-04-30 19:09 43.61212 5.20720 35212 ft 445 kts 206°
2026-04-30 19:10 43.49680 5.14554 35174 ft 444 kts 206°
2026-04-30 19:11 43.41040 5.09979 35179 ft 443 kts 206°
2026-04-30 19:12 43.35728 5.05960 35176 ft 433 kts 219°
2026-04-30 19:12 43.30774 5.01264 35162 ft 433 kts 219°
2026-04-30 19:13 43.20859 4.91950 35157 ft 433 kts 219°
2026-04-30 19:14 43.15875 4.87295 35153 ft 433 kts 219°
2026-04-30 19:14 43.10902 4.82643 35142 ft 433 kts 219°
2026-04-30 19:15 43.05921 4.77996 35145 ft 435 kts 217°
2026-04-30 19:15 42.97960 4.71881 35143 ft 438 kts 214°
2026-04-30 19:16 42.92636 4.67848 35141 ft 438 kts 214°
2026-04-30 19:17 42.84643 4.61811 35139 ft 438 kts 214°
2026-04-30 19:17 42.76651 4.55791 35131 ft 437 kts 214°
2026-04-30 19:18 42.68708 4.49811 35129 ft 437 kts 214°
2026-04-30 19:19 42.63390 4.45823 35126 ft 437 kts 214°
2026-04-30 19:19 42.55410 4.39861 35121 ft 437 kts 214°
2026-04-30 19:20 42.50083 4.35888 35116 ft 436 kts 214°
2026-04-30 19:21 42.42119 4.29979 35132 ft 434 kts 214°
2026-04-30 19:22 42.31570 4.22150 35124 ft 433 kts 215°
2026-04-30 19:23 42.15799 4.10525 35137 ft 428 kts 215°
2026-04-30 19:24 42.07962 4.04756 35120 ft 427 kts 215°
2026-04-30 19:25 41.94946 3.95223 35112 ft 426 kts 214°
2026-04-30 19:26 41.89259 3.92560 35089 ft 437 kts 203°
2026-04-30 19:26 41.83412 3.90329 35090 ft 437 kts 203°
2026-04-30 19:27 41.74613 3.87040 35098 ft 438 kts 202°
2026-04-30 19:28 41.65797 3.83766 35098 ft 438 kts 202°
2026-04-30 19:29 41.54013 3.79383 35097 ft 438 kts 202°
2026-04-30 19:30 41.43145 3.75356 35087 ft 438 kts 202°
2026-04-30 19:31 41.34666 3.72220 35093 ft 438 kts 202°
2026-04-30 19:31 41.33794 3.71900 35087 ft 438 kts 202°
2026-04-30 19:32 41.31565 3.71081 35092 ft 438 kts 202°
2026-04-30 19:32 41.25683 3.68927 35082 ft 438 kts 201°
2026-04-30 19:33 41.19803 3.66762 35092 ft 438 kts 201°
2026-04-30 19:33 41.13934 3.64606 35095 ft 438 kts 201°
2026-04-30 19:34 41.08054 3.62459 35094 ft 438 kts 201°
2026-04-30 19:35 40.99247 3.59233 35079 ft 437 kts 201°
2026-04-30 19:35 40.93371 3.57090 35083 ft 437 kts 201°
2026-04-30 19:36 40.87503 3.54968 35083 ft 437 kts 201°
2026-04-30 19:36 40.78704 3.51767 35072 ft 438 kts 201°
2026-04-30 19:37 40.72822 3.49638 35074 ft 438 kts 201°
2026-04-30 19:37 40.66936 3.47514 35074 ft 438 kts 201°
2026-04-30 19:38 40.61052 3.45394 35075 ft 438 kts 201°
2026-04-30 19:38 40.55164 3.43282 35074 ft 439 kts 201°
2026-04-30 19:39 40.49277 3.41160 35070 ft 439 kts 201°
2026-04-30 19:39 40.43330 3.39471 35075 ft 446 kts 189°
2026-04-30 19:40 40.37054 3.39649 34300 ft 455 kts 182°
2026-04-30 19:40 40.33869 3.39837 33124 ft 461 kts 182°
2026-04-30 19:40 40.30646 3.40021 31977 ft 465 kts 182°
2026-04-30 19:41 40.27398 3.40203 30853 ft 469 kts 182°
2026-04-30 19:41 40.24128 3.40382 29645 ft 472 kts 183°
2026-04-30 19:41 40.20829 3.40562 28272 ft 475 kts 182°
2026-04-30 19:41 40.17510 3.40747 26897 ft 478 kts 182°
2026-04-30 19:42 40.14226 3.40504 25450 ft 466 kts 195°
2026-04-30 19:42 40.11102 3.39573 23816 ft 458 kts 198°
2026-04-30 19:42 40.07981 3.38574 22308 ft 464 kts 198°
2026-04-30 19:42 40.04872 3.37558 21472 ft 457 kts 198°
2026-04-30 19:43 40.01812 3.36561 20642 ft 451 kts 197°
2026-04-30 19:43 39.98780 3.35581 19767 ft 448 kts 197°
2026-04-30 19:43 39.95775 3.34615 19080 ft 441 kts 197°
2026-04-30 19:44 39.89900 3.32735 17731 ft 429 kts 197°
2026-04-30 19:44 39.87027 3.31821 17130 ft 421 kts 197°
2026-04-30 19:44 39.84204 3.30924 16559 ft 414 kts 197°
2026-04-30 19:44 39.81424 3.30038 16068 ft 407 kts 197°
2026-04-30 19:45 39.78739 3.29185 15928 ft 384 kts 197°
2026-04-30 19:45 39.76238 3.28398 15801 ft 356 kts 197°
2026-04-30 19:45 39.73935 3.27675 15672 ft 337 kts 197°
2026-04-30 19:45 39.71702 3.26965 15548 ft 324 kts 197°
2026-04-30 19:46 39.69554 3.26278 15364 ft 313 kts 197°
2026-04-30 19:46 39.67459 3.25605 15147 ft 307 kts 197°
2026-04-30 19:46 39.65404 3.24869 15076 ft 304 kts 204°
2026-04-30 19:46 39.63528 3.23640 14980 ft 301 kts 216°
2026-04-30 19:47 39.61925 3.21925 14729 ft 300 kts 228°
2026-04-30 19:47 39.61027 3.20516 14416 ft 300 kts 237°
2026-04-30 19:47 39.59725 3.17395 13994 ft 295 kts 244°
2026-04-30 19:47 39.58818 3.15033 13333 ft 292 kts 244°
2026-04-30 19:48 39.57913 3.12697 12842 ft 289 kts 244°
2026-04-30 19:48 39.57008 3.10373 12416 ft 289 kts 244°
2026-04-30 19:48 39.56102 3.08044 12002 ft 289 kts 244°
2026-04-30 19:48 39.55201 3.05726 11640 ft 288 kts 244°
2026-04-30 19:49 39.54322 3.03475 11495 ft 270 kts 244°
2026-04-30 19:49 39.52727 2.99384 11066 ft 243 kts 244°
2026-04-30 19:49 39.51972 2.97445 10607 ft 240 kts 244°
2026-04-30 19:50 39.51225 2.95529 10122 ft 237 kts 244°
2026-04-30 19:50 39.50482 2.93625 9599 ft 236 kts 244°
2026-04-30 19:50 39.49745 2.91740 9061 ft 234 kts 244°
2026-04-30 19:50 39.49008 2.89854 8660 ft 236 kts 244°
2026-04-30 19:51 39.48266 2.87955 8296 ft 236 kts 244°
2026-04-30 19:51 39.47538 2.86096 8127 ft 227 kts 244°
2026-04-30 19:51 39.46828 2.84291 7844 ft 224 kts 244°
2026-04-30 19:51 39.46123 2.82498 7494 ft 223 kts 244°
2026-04-30 19:52 39.45420 2.80705 7156 ft 223 kts 244°
2026-04-30 19:52 39.44718 2.78913 6823 ft 223 kts 244°
2026-04-30 19:52 39.44022 2.77124 6491 ft 223 kts 246°
2026-04-30 19:52 39.43515 2.75242 6134 ft 222 kts 258°
2026-04-30 19:53 39.43290 2.73267 5778 ft 223 kts 264°
2026-04-30 19:53 39.43112 2.71253 5350 ft 226 kts 263°
2026-04-30 19:53 39.42928 2.69242 5075 ft 223 kts 263°
2026-04-30 19:53 39.42745 2.67249 4829 ft 222 kts 264°
2026-04-30 19:54 39.42561 2.65263 4621 ft 223 kts 263°
2026-04-30 19:54 39.42377 2.63261 4445 ft 226 kts 264°
2026-04-30 19:54 39.42194 2.61242 4200 ft 226 kts 264°
2026-04-30 19:54 39.42008 2.59215 3944 ft 228 kts 264°
2026-04-30 19:55 39.41821 2.57178 3710 ft 228 kts 264°
2026-04-30 19:55 39.41635 2.55140 3581 ft 229 kts 264°
2026-04-30 19:55 39.41447 2.53090 3462 ft 230 kts 263°
2026-04-30 19:55 39.41387 2.51036 3331 ft 229 kts 285°
2026-04-30 19:56 39.42194 2.49358 3204 ft 218 kts 328°
2026-04-30 19:56 39.43569 2.48873 3090 ft 201 kts 13°
2026-04-30 19:56 39.44709 2.49710 3006 ft 187 kts 52°
2026-04-30 19:56 39.45364 2.51131 2973 ft 183 kts 63°
2026-04-30 19:57 39.45970 2.52573 2968 ft 182 kts 60°
2026-04-30 19:57 39.46614 2.53990 2921 ft 183 kts 59°
2026-04-30 19:57 39.47271 2.55390 2757 ft 182 kts 59°
2026-04-30 19:57 39.47930 2.56779 2531 ft 181 kts 58°
2026-04-30 19:58 39.48582 2.58151 2311 ft 176 kts 58°
2026-04-30 19:58 39.49202 2.59457 2079 ft 164 kts 58°
2026-04-30 19:58 39.49780 2.60674 1832 ft 154 kts 58°
2026-04-30 19:58 39.50329 2.61842 1585 ft 150 kts 59°
2026-04-30 19:59 39.50869 2.62996 1387 ft 150 kts 59°
2026-04-30 19:59 39.51416 2.64150 1210 ft 151 kts 57°
2026-04-30 19:59 39.52542 2.66467 846 ft 153 kts 59°
2026-04-30 20:00 39.53090 2.67671 649 ft 156 kts 59°
2026-04-30 20:00 39.53677 2.68867 463 ft 158 kts 59°
2026-04-30 20:00 39.54246 2.70075 244 ft 157 kts 59°
2026-04-30 20:00 39.54817 2.71281 47 ft 155 kts 59°
2026-04-30 20:01 39.55665 2.73076 38 ft 69 kts 58°
2026-04-30 20:01 39.55868 2.73507 37 ft 37 kts 58°
2026-04-30 20:01 39.55980 2.73741 38 ft 19 kts 59°
2026-04-30 20:02 39.55887 2.73899 38 ft 4 kts 149°
2026-04-30 20:02 39.55862 2.73911 38 ft 3 kts 175°
2026-04-30 20:03 39.55794 2.73790 36 ft 16 kts 238°
2026-04-30 20:03 39.55753 2.73708 38 ft 16 kts 238°
2026-04-30 20:03 39.55713 2.73625 38 ft 12 kts 238°
2026-04-30 20:03 39.55694 2.73583 36 ft 0 kts 239°
2026-04-30 20:04 39.55678 2.73548 38 ft 7 kts 239°
2026-04-30 20:04 39.55640 2.73500 38 ft 8 kts 199°
2026-04-30 20:05 39.55557 2.73552 36 ft 6 kts 149°
2026-04-30 20:05 39.55527 2.73575 38 ft 4 kts 149°
2026-04-30 20:05 39.55412 2.73664 38 ft 16 kts 147°
2026-04-30 20:06 39.55303 2.73748 38 ft 19 kts 149°
2026-04-30 20:06 39.55183 2.73843 38 ft 21 kts 149°
2026-04-30 20:06 39.55052 2.73948 38 ft 22 kts 148°
2026-04-30 20:06 39.54970 2.74008 38 ft 9 kts 167°
2026-04-30 20:07 39.54935 2.73957 38 ft 9 kts 269°
2026-04-30 20:07 39.54925 2.73873 38 ft 10 kts 250°
2026-04-30 20:07 39.54903 2.73804 38 ft 1 kts 248°
2026-04-30 20:10 39.54903 2.73805 38 ft 0 kts 248°
2026-04-30 20:11 39.54903 2.73804 38 ft 0 kts 248°